TimeCDT,TemperatureF,Dew PointF,Humidity,Sea Level PressureIn,VisibilityMPH,Wind Direction,Wind SpeedMPH,Gust SpeedMPH,PrecipitationIn,Events,Conditions,WindDirDegrees,DateUTC
12:26 AM,60.8,60.8,100,29.94,5.0,East,8.1,-,N/A,,Overcast,100,2013-10-05 05:26:00
12:53 AM,61.0,60.1,97,29.94,3.0,East,9.2,-,N/A,,Overcast,90,2013-10-05 05:53:00
1:03 AM,60.8,60.8,100,29.93,2.5,East,8.1,-,N/A,,Overcast,100,2013-10-05 06:03:00
1:53 AM,61.0,61.0,100,29.94,2.0,East,5.8,-,N/A,,Overcast,100,2013-10-05 06:53:00
2:14 AM,60.8,60.8,100,29.93,1.8,ESE,8.1,-,N/A,,Overcast,110,2013-10-05 07:14:00
2:53 AM,62.1,61.0,96,29.91,1.2,ESE,6.9,-,N/A,,Overcast,120,2013-10-05 07:53:00
3:14 AM,62.6,60.8,94,29.90,0.8,ESE,5.8,-,N/A,,Mist,120,2013-10-05 08:14:00
3:50 AM,62.6,62.6,100,29.91,1.0,East,3.5,-,N/A,,Mist,90,2013-10-05 08:50:00
3:53 AM,62.1,62.1,100,29.90,1.0,ESE,3.5,-,N/A,,Mist,110,2013-10-05 08:53:00
4:41 AM,62.6,62.6,100,29.90,2.0,SE,4.6,-,N/A,,Overcast,130,2013-10-05 09:41:00
4:53 AM,63.0,62.1,97,29.89,2.0,ESE,4.6,-,N/A,,Overcast,120,2013-10-05 09:53:00
5:21 AM,62.6,62.6,100,29.89,1.8,ESE,4.6,-,N/A,,Overcast,110,2013-10-05 10:21:00
5:53 AM,63.0,63.0,100,29.89,1.0,SE,3.5,-,N/A,,Overcast,130,2013-10-05 10:53:00
6:18 AM,62.6,62.6,100,29.91,0.8,North,8.1,-,N/A,,Overcast,10,2013-10-05 11:18:00
6:46 AM,62.6,60.8,94,29.91,1.0,North,6.9,-,N/A,,Overcast,10,2013-10-05 11:46:00
6:53 AM,62.1,61.0,96,29.90,1.0,NNE,5.8,-,N/A,,Overcast,30,2013-10-05 11:53:00
7:07 AM,62.6,60.8,94,29.90,0.8,NE,5.8,-,N/A,,Overcast,50,2013-10-05 12:07:00
7:53 AM,62.1,62.1,100,29.90,0.5,East,6.9,-,N/A,Fog,Fog,100,2013-10-05 12:53:00
8:16 AM,62.6,62.6,100,29.90,0.2,Calm,Calm,-,N/A,Fog,Fog,0,2013-10-05 13:16:00
8:53 AM,63.0,63.0,100,29.88,0.2,East,5.8,-,N/A,Fog,Fog,100,2013-10-05 13:53:00
9:35 AM,64.4,64.4,100,29.88,0.5,ESE,8.1,-,N/A,Fog,Fog,120,2013-10-05 14:35:00
9:53 AM,64.9,64.9,100,29.87,0.5,SE,8.1,-,N/A,,Overcast,130,2013-10-05 14:53:00
10:45 AM,66.2,66.2,100,29.89,1.0,Calm,Calm,-,N/A,,Overcast,0,2013-10-05 15:45:00
10:53 AM,66.9,66.0,97,29.88,1.0,SSE,3.5,-,N/A,,Overcast,160,2013-10-05 15:53:00
11:53 AM,68.0,66.9,96,29.87,1.5,South,6.9,-,0.00,Rain,Light Rain,170,2013-10-05 16:53:00
12:53 PM,70.0,68.0,93,29.86,1.5,South,4.6,-,N/A,Rain,Light Rain,180,2013-10-05 17:53:00
1:01 PM,69.8,68.0,94,29.86,2.0,South,5.8,-,N/A,Rain,Light Rain,180,2013-10-05 18:01:00
1:18 PM,71.6,69.8,94,29.86,1.5,South,5.8,-,N/A,Rain,Light Rain,180,2013-10-05 18:18:00
1:30 PM,71.6,69.8,94,29.86,2.0,SSW,6.9,-,0.01,Rain,Light Rain,200,2013-10-05 18:30:00
1:49 PM,71.6,69.8,94,29.82,2.0,South,3.5,-,0.05,Rain,Light Rain,170,2013-10-05 18:49:00
1:53 PM,71.1,69.1,93,29.81,2.0,SE,4.6,-,0.06,Rain,Light Rain,140,2013-10-05 18:53:00
2:00 PM,71.6,69.8,94,29.81,4.0,Calm,Calm,-,0.00,,Mostly Cloudy,0,2013-10-05 19:00:00
2:53 PM,73.0,69.1,87,29.79,7.0,South,5.8,-,0.00,,Scattered Clouds,190,2013-10-05 19:53:00
3:53 PM,73.9,69.1,85,29.77,9.0,South,4.6,-,N/A,,Scattered Clouds,170,2013-10-05 20:53:00
4:53 PM,71.1,64.9,81,29.78,8.0,South,5.8,-,0.02,,Mostly Cloudy,180,2013-10-05 21:53:00
5:53 PM,69.1,66.0,90,29.77,7.0,SSE,9.2,-,0.00,Rain,Light Rain,150,2013-10-05 22:53:00
6:53 PM,66.0,64.0,93,29.76,10.0,SE,5.8,-,0.00,,Mostly Cloudy,140,2013-10-05 23:53:00
7:53 PM,66.9,64.9,93,29.75,10.0,SE,9.2,-,N/A,,Overcast,130,2013-10-06 00:53:00
8:16 PM,66.2,66.2,100,29.76,6.0,South,6.9,-,0.04,Rain,Rain,180,2013-10-06 01:16:00
8:48 PM,66.2,64.4,94,29.76,10.0,SW,5.8,-,0.06,,Mostly Cloudy,220,2013-10-06 01:48:00
8:53 PM,66.9,63.0,87,29.76,10.0,SSW,8.1,-,0.06,,Mostly Cloudy,210,2013-10-06 01:53:00
9:32 PM,64.4,62.6,94,29.77,10.0,SW,6.9,-,N/A,,Mostly Cloudy,230,2013-10-06 02:32:00
9:53 PM,64.9,61.0,87,29.76,10.0,SSW,6.9,-,N/A,,Overcast,210,2013-10-06 02:53:00
10:16 PM,64.4,59.0,83,29.76,10.0,SW,8.1,-,N/A,,Overcast,220,2013-10-06 03:16:00
10:53 PM,62.1,55.0,78,29.75,10.0,SW,8.1,-,N/A,,Overcast,230,2013-10-06 03:53:00
11:53 PM,59.0,51.1,75,29.76,10.0,Variable,3.5,-,N/A,,Overcast,0,2013-10-06 04:53:00